Regional Weather Roundup
Issued by NWS

Home | Current Version | Previous Version | Text Only | Print | Product List | Glossary On
Versions: 1 2 3 4 5 6 7 8 9 10 11 12 13 14 15 16 17 18 19 20 21 22 23 24 25 26 27 28 29 30 31 32 33 34 35 36 37 38 39 40 41 42 43 44 45 46 47 48 49 50
254
ASUS43 KIND 191709
RWRIN

WEATHER ROUNDUP FOR INDIANA
NATIONAL WEATHER SERVICE INDIANAPOLIS IN
100 PM EDT THU SEP 19 2019

NOTE: "FAIR" INDICATES FEW OR NO CLOUDS BELOW 12,000 FEET WITH NO
SIGNIFICANT WEATHER AND/OR OBSTRUCTIONS TO VISIBILITY.

* - STATION DOES NOT REPORT WEATHER SUCH AS PRECIPITATION OR FOG.

+ - STATION NOT QUALITY CONTROLLED BY THE NATIONAL WEATHER SERVICE.
    USE DATA WITH CAUTION...ESPECIALLY DEWPOINT AND RELATIVE
    HUMIDITY OBSERVATIONS.

INZ001>003-010>013-019-020-191800-
NORTHWEST INDIANA

CITY           SKY/WX    TMP DP  RH WIND       PRES   REMARKS
GARY /AIRPORT/ MOSUNNY   81  55  41 S7        30.10F
KNOX *+        FAIR      79  55  44 SE5       30.12F
LA PORTE +     FAIR      79  58  48 S5        30.13S
MICHIGAN CITY+ FAIR      79  68  69 CALM      30.11F
MONTICELLO +   FAIR      80  57  45 N3        30.11F
RENSSELAER +   FAIR      79  59  50 CALM      30.11F
VALPARAISO     FAIR      83  58  42 SE6       30.11F

$$

LMZ046-743>745-191800-
SOUTHERN LAKE MICHIGAN

STATION/POSITION TIME  TEMP    WIND        PRES    WAVE
                       AIR SEA DIR/SP/G            HT
                 (UTC) (F)     (DEG/KT/KT) (MB)    (FT)
BURNS HARBOR     1640   79     190/  2/  4 1019.6F
MICHIGAN CITY    1640   78        CALM       N/A
5NW MICH CITY    1700   71 69   40/  4/  4   N/A     0

$$

INZ004-005-014>016-021>024-191800-
NORTH CENTRAL INDIANA

CITY           SKY/WX    TMP DP  RH WIND       PRES   REMARKS
GOSHEN         FAIR      79  57  46 CALM      30.13F
LOGANSPORT +   FAIR      77  59  53 CALM      30.13F
PERU/GRISSOM   FAIR      80  58  46 NE3       30.11F
PLYMOUTH *+    SUNNY     79  55  44 CALM      30.12F
ROCHESTER +    FAIR      79  55  44 SE3       30.13F
SOUTH BEND     FAIR      79  57  46 S5        30.13F
WARSAW +       FAIR      77  55  47 CALM      30.14S

$$

INZ006>009-017-018-025>027-191800-
NORTHEAST INDIANA

CITY           SKY/WX    TMP DP  RH WIND       PRES   REMARKS
ANGOLA *+      FAIR      75 N/A N/A SE7       30.15F
AUBURN +       FAIR      73  55  53 CALM      30.16F
FORT WAYNE     FAIR      75  58  55 NE5       30.14F
KENDALLVILLE + FAIR      76  51  41 CALM      30.15F

$$

INZ028-029-035-036-043>045-051>053-191800-
WEST CENTRAL INDIANA

CITY           SKY/WX    TMP DP  RH WIND       PRES   REMARKS
CRAWFORDSVL +  FAIR      78  62  57 CALM      30.11F
GREENCASTLE +  FAIR      81  63  54 CALM      30.11F
LAFAYETTE      FAIR      81  59  47 CALM      30.10F
TERRE HAUTE    FAIR      83  64  52 CALM      30.10F

$$

INZ030>032-037>040-046>048-054>057-064-065-191800-
CENTRAL INDIANA

CITY           SKY/WX    TMP DP  RH WIND       PRES   REMARKS
COLUMBUS       SUNNY     82  61  47 CALM      30.11F
FRANKFORT +    CLOUDY    82  63  52 CALM      30.13F
INDIANAPOLIS   FAIR      81  58  45 CALM      30.11F
-EAGLE CREEK   FAIR      83  59  44 CALM      30.10F
KOKOMO +       FAIR      81  59  47 VRB3      30.13F
MT COMFORT *+  FAIR      81  68  65 CALM      30.12F
SHELBYVILLE    FAIR      81  63  54 CALM      30.11F
ZIONSVILLE +   FAIR      79  63  57 CALM      30.13S

$$

INZ033-034-041-042-049-050-058-059-191800-
EAST CENTRAL INDIANA

CITY           SKY/WX    TMP DP  RH WIND       PRES   REMARKS
MUNCIE         FAIR      82  60  47 CALM      30.13F
PORTLAND +     FAIR      79  52  38 CALM      30.14F
RICHMOND +     FAIR      77  66  69 S3        30.15S

$$

INZ060-061-067>069-081>083-085>088-191800-
SOUTHWEST INDIANA

CITY           SKY/WX    TMP DP  RH WIND       PRES   REMARKS
EVANSVILLE     FAIR      86  63  45 VRB6      30.09F
HUNTINGBURG +  FAIR      85  66  53 VRB6      30.10F
WASHINGTON +   FAIR      83  64  53 CALM      30.08F

$$

INZ062-063-066-070>080-084-089>092-191800-
SOUTH CENTRAL AND SOUTHEAST INDIANA

CITY           SKY/WX    TMP DP  RH WIND       PRES   REMARKS
BATESVILLE +   SUNNY     82  63  51 CALM      30.12F
BEDFORD +        N/A     82  61  47 CALM      30.10F
BLOOMINGTON    FAIR      83  64  52 VRB3      30.10F
FRENCH LICK *+ FAIR      81  61  50 SW3       30.10F
JEFFERSONVL +  FAIR      85  65  52 S7        30.10F
MADISON *+     FAIR      82  64  54 CALM      30.13F
NORTH VERNON + FAIR      81  64  57 CALM      30.11F
SEYMOUR +      FAIR      84  63  48 CALM      30.10F

$$





USA.gov is the U.S. government's official web portal to all federal, state and local government web resources and services.